DMSP 5D-2 F13 DEB

Satellite information

Favourite Embed

Satellite Type and Status

DEBRISIN ORBIT

Key statistics

Satellite DMSP 5D-2 F13 DEB at a glance.

Uptime

11167

Days in orbit

Revolutions

≈ 14.4

Per day

Orbit

SSO

Sun Synchronous Orbit

Inclination

98.8

Latest

Satellite identification and parameters

Extended collection of information and parameters for DMSP 5D-2 F13 DEB.

Object identification

Identified? True

Debris? True

Object name: DMSP 5D-2 F13 DEB

International designator: 1995-015FJ

Object number (NORAD): 40611

Object ID (CCSDS): 40611

Country: UNITED STATES OF AMERICA (US)

Current information (Y/N): Y

RCS size: SMALL

Orbital parameters

Period: 100.343 minutes

Inclination: 98.7907 deg

SMA: 7152.967 km

Apoapsis: 796.718 km

Periapsis: 752.946 km

RAAN: 319.2288 deg

Eccentricy: 0.00305967

Argument of periapsis: 126.3608 deg

Mean anomaly: 234.0407 deg

Mean motion: 14.35071085 rev/day

Mean motion (dot): 0.00008053 rev/day2

B* drag term: 0.0028215125 1/REarth

Two-line elements (TLE)

Creation date: Oct. 18, 2025, 10:30 a.m.

Reference frame: TEME

Reference center: EARTH

Epoch: Oct. 18, 2025, 12:48 a.m. UTC

TLE line 0: 0 DMSP 5D-2 F13 DEB

TLE line 1: 1 40611U 95015FJ 25291.03388725 .00008053 00000-0 28215-2 0 9993

TLE line 2: 2 40611 98.7907 319.2288 0030597 126.3608 234.0407 14.35071085543700

Live tracking on map

Real-time ground track for satellite DMSP 5D-2 F13 DEB.

In-orbit conjunctions

A list of the most updated potential collisions computed for object DMSP 5D-2 F13 DEB.

Target Orbit TCA Probability of collision Miss distance Type
SL-8 R/B LEO 2025-09-21 12:29:55 0.0001597117 192.0 (m) ROCKET BODY
FENGYUN 1C DEB SSO 2025-08-12 03:04:57 0.0001530807 74.0 (m) DEBRIS
SL-12 R/B(AUX MOTOR) LEO 2025-04-18 04:05:53 0.0001577649 383.0 (m) ROCKET BODY
FENGYUN 1C DEB SSO 2024-11-12 08:51:58 0.0002842395 159.0 (m) DEBRIS

Associated space launch

Military meteorological satellite

DMSP 5D-2 F13 DEB was lifted into orbit during the mission ‘Atlas E | DMSP-5D2 F13’, on board a Atlas E space rocket.

The launch took place on March 24, 1995, 2:05 p.m. from Space Launch Complex 3W.

For more information about the launch, click the button.

Launch to space Atlas E | DMSP-5D2 F13
Atlas E | DMSP-5D2 F13

Agency: N/A

Status: Launch Successful

Launch date: March 24, 1995, 2:05 p.m. UTC

Rocket: Atlas E

Launch pad: Space Launch Complex 3W

Location: Vandenberg SFB, CA, USA

...

Latest news about this satellite

There are no fresh news available about this satellite. Check back as we update our databases every day.


Newsletter sign-up

Weekly statistics, charts and insights to help you stay on top of the space industry.